Location: Kershaw
(34.5481°N, 80.5823°W)
Time: 11:52:58
(UTC+00:00)

Tiros 1 despin weight - Pass Details

Date: 03 October 2022
Orbit: 590 x 637 km, 48.2° (Epoch: 25 November)

Event Time Altitude Azimuth Distance (km) Brightness Sun altitude
Rises 21:40:20 0° 264° (W) 2,834 ? 16.0°
Reaches altitude 10° 21:42:52 10° 276° (W) 1,941 ? 15.5°
Maximum altitude 21:46:42 28° 336° (NNW) 1,152 ? 14.7°
Drops below altitude 10° 21:50:37 10° 35° (NE) 1,972 ? 14.0°
Sets 21:53:13 0° 48° (NE) 2,889 ? 13.4°
